User: anonymous   Login
Location: Standeford and Andreas Observatories
(44.1397°N, 93.9969°W)
Time: 11:27:05
(UTC-06:00)
Language:

Cosmos 1500 Rocket - Orbit

View from above orbital plane
View from above orbital plane
View from above satellite
View from above satellite

Ground track
Ground track

The orbit data is extracted from the following two-line orbital elements,

1 14373U 83099B   17024.10609105  .00000100  00000-0  91447-5 0  9994
2 14373  82.5398  19.1938 0019840 346.7092  80.2486 14.83657191799513
Epoch (UTC): 24 January 2017 02:32:46
Eccentricity: 0.0019840
inclination: 82.5398°
perigee height: 604 km
apogee height: 631 km
right ascension of ascending node: 19.1938°
argument of perigee: 346.7092°
revolutions per day: 14.83657191
mean anomaly at epoch: 80.2486°
orbit number at epoch: 79951

The dashed part of the orbit path shows where the satellite is in the earth's shadow,  

DLR